This is the latest recevied weather packets stored in our database for station/object N4XWC. If no packets are shown the sender has not sent any weather packets the latest 1 day(s).
| Time | Temp. | Humidity | Pressure | Rain* | Wind** | Luminosity | Snow |
|---|---|---|---|---|---|---|---|
| 1777989734 | 18.89° C | 75% | 1014.1 hPa | 0 mm | 2.24 m/s, 217° | - | - |
| 1777989584 | 18.89° C | 76% | 1014.1 hPa | 0 mm | 1.34 m/s, 232° | - | - |
| 1777989285 | 18.33° C | 77% | 1014.1 hPa | 0 mm | 1.34 m/s, 205° | - | - |
| 1777989136 | 18.33° C | 78% | 1014.1 hPa | 0 mm | 0 m/s | - | - |
| 1777988983 | 17.78° C | 79% | 1014.1 hPa | 0 mm | 0.45 m/s, 161° | - | - |
| 1777988684 | 17.78° C | 79% | 1013.9 hPa | 0 mm | 0.45 m/s, 230° | - | - |
| 1777988534 | 17.78° C | 80% | 1013.9 hPa | 0 mm | 0 m/s | - | - |
| 1777988383 | 17.22° C | 80% | 1013.9 hPa | 0 mm | 1.79 m/s, 258° | - | - |
| 1777988085 | 17.22° C | 81% | 1013.9 hPa | 0 mm | 0.89 m/s, 256° | - | - |
| 1777987935 | 17.22° C | 81% | 1013.9 hPa | 0 mm | 0.45 m/s, 265° | - | - |
| 1777987783 | 16.67° C | 82% | 1014.1 hPa | 0 mm | 0.89 m/s, 212° | - | - |
| 1777987483 | 16.67° C | 82% | 1014.1 hPa | 0 mm | 0 m/s | - | - |
| 1777987334 | 16.67° C | 82% | 1014.1 hPa | 0 mm | 0 m/s | - | - |
| 1777987184 | 16.11° C | 83% | 1014.1 hPa | 0 mm | 0 m/s | - | - |
| 1777986884 | 16.11° C | 83% | 1014.1 hPa | 0 mm | 0 m/s | - | - |
| 1777986736 | 15.56° C | 84% | 1014.1 hPa | 0 mm | 0 m/s | - | - |
| 1777986584 | 15.56° C | 84% | 1014.1 hPa | 0 mm | 0.45 m/s, 206° | - | - |
| 1777986283 | 15.56° C | 86% | 1014.1 hPa | 0 mm | 0.45 m/s, 219° | - | - |
| 1777986135 | 15.56° C | 86% | 1014.1 hPa | 0 mm | 0.45 m/s, 217° | - | - |
| 1777985985 | 15.56° C | 86% | 1014.1 hPa | 0 mm | 0 m/s | - | - |
| 1777985684 | 15° C | 86% | 1014.1 hPa | 0 mm | 0.45 m/s, 188° | - | - |
| 1777985535 | 15° C | 86% | 1014.1 hPa | 0 mm | 0.89 m/s, 248° | - | - |
| 1777985383 | 15° C | 86% | 1014.1 hPa | 0 mm | 0.89 m/s, 154° | - | - |
| 1777985083 | 14.44° C | 87% | 1013.8 hPa | 0 mm | 0 m/s | - | - |
| 1777984934 | 14.44° C | 88% | 1013.8 hPa | 0 mm | 1.34 m/s, 202° | - | - |
* Rain latest hour (hover to see other rain measurements)
** Current wind speed in m/s (hover to see current wind gust speed)